Find Starlink 32658

NORAD ID: 62999 Int'l Des: 2025-031 Owner: SPXS Country: US Constellation: starlink operational
LEOCIRCULAR

現在のビュー

3D地球を読み込み中...

About Starlink 32658

Starlink 32658 (NORAD 62999) is a starlink constellation satellite (v2 mini) launched Feb 11, 2025 by SPXS of US. It operates in LEO, CIRCULAR orbit with a mass of 730.00 kg.

次回通過

Passes for default location (London). Set your location on the main map for personalized predictions.

高度履歴

Loading altitude history...

軌道要素

1 62999U 25031U 26262.99709841 .00011238 00000-0 41715-3 0 9997
2 62999 43.0042 125.8484 0001440 279.7393 80.3296 15.27590105 90812
Epoch: Sep 19, 2026 • Age: 24 hours

現在のステータス

高度 482.3 km
遠地点 / 近地点 N/A
速度 7.63 km/s
衛星直下点 2.07°N, 130.41°E
打ち上げ日 Feb 11, 2025
運用期間 1.6 years
タイプ internet

技術仕様

分類 Payload
質量 730.00 kg
乾燥質量 700.00 kg
長さ 0.30 m
スパン 29.00 m
形状 ? Box + pan
製造者 SPXS
バスタイプ Starlink V2M
フェーズステータス In Orbit
所有者/国 SPXS/US

Most Searched